QPF
0.00 0.00 0.00 0.00 0.00 0.00 0.00 0.00 0.00 0.00 0.00 0.00 0.00 0.00 0.00 0.00 0.00 0.00 0.00 0.00 0.00 0.00
0.00 0.00 0.00 0.00 0.00 0.00 0.00 0.00 0.00 0.00 0.00 0.00 0.00 0.00 0.00 0.00 0.00 0.00 0.00 0.00 0.00 0.00
0.00 0.00 0.00 0.00 0.00 0.00 0.00 0.00 0.00 0.00 0.00 0.00 0.00 0.00 0.00 0.00 0.00 0.00 0.00 0.00 0.00 0.00
0.00 0.00 0.00 0.00 0.00 0.00 0.00 0.00 0.00 0.00 0.00 0.00 0.00 0.00 0.00 0.00 0.00 0.00 0.00 0.00 0.00 0.00
0.00 0.00 0.00 0.00 0.00 0.00 0.00 0.00 0.00 0.00 0.00 0.00 0.00 0.00 0.00 0.00 0.00 0.00 0.00 0.00 0.00 0.00
0.00 0.00 0.00 0.00 0.00 0.00 0.00 0.00 0.00 0.00 0.00 0.00 0.00 0.00 0.00 0.00 0.00 0.00 0.00 0.00 0.00 0.00
0.00 0.00 0.00 0.00 0.00 0.00 0.00 0.00 0.00 0.00 0.00 0.00 0.00 0.00 0.00 0.00 0.00 0.00 0.00 0.00 0.00 0.00
0.00 0.00 0.00 0.00 0.00 0.00 0.00 0.00 0.00 0.00 0.00 0.00 0.00 0.00 0.00 0.00 0.00 0.00 0.00 0.00 0.00 0.00
0.00 0.00 0.00 0.00 0.00 0.00 0.00 0.00 0.00 0.00 0.00 0.00 0.00 0.00 0.00 0.00 0.00 0.00 0.00 0.00 0.00 0.00
0.00 0.00 0.00 0.00 0.00 0.00 0.00 0.00 0.00 0.00 0.00 0.00 0.00 0.00 0.00 0.00 0.00 0.00 0.00 0.00 0.00 0.00
0.00 0.00 0.00 0.00 0.00 0.00 0.00 0.00 0.00 0.00 0.00 0.00 0.00 0.00 0.00 0.00 0.00 0.00 0.00 0.00 0.00 0.00
0.00 0.00 0.00 0.00 0.00 0.00 0.00 0.00 0.00 0.00 0.00 0.00 0.00 0.00 0.00 0.00 0.00 0.00 0.00 0.00 0.00 0.00
0.00 0.00 0.00 0.00 0.00 0.00 0.00 0.00 0.00 0.00 0.00 0.00 0.00 0.00 0.00 0.00 0.00 0.00 0.00 0.00 0.00 0.00
0.00 0.00 0.00 0.00 0.00 0.00 0.00 0.00 0.00 0.00 0.00 0.00 0.00 0.00 0.00 0.00 0.00 0.00 0.00 0.00 0.00 0.00
MSLP
1028.63 1028.93 1029.26 1029.43 1029.71 1029.86 1029.85 1030.07 1030.02 1029.91 1029.78 1029.74 1029.82 1029.83 1029.66 1029.50 1028.69 1028.72 1028.55 1028.28 1028.19 1027.94
1029.00 1029.25 1029.39 1029.70 1029.81 1029.98 1030.13 1030.12 1030.24 1030.22 1030.24 1030.28 1030.03 1029.80 1029.85 1029.64 1029.08 1028.95 1028.57 1028.26 1027.96 1027.88
1029.27 1029.46 1029.63 1029.70 1030.02 1030.27 1030.54 1030.65 1030.62 1030.64 1030.56 1030.47 1030.22 1030.13 1029.86 1029.45 1029.05 1028.73 1028.32 1028.02 1027.82 1027.68
1029.53 1029.81 1029.93 1030.22 1030.55 1030.68 1030.81 1030.82 1030.82 1030.67 1030.58 1030.34 1030.15 1029.86 1029.69 1029.35 1028.89 1028.53 1028.15 1027.88 1027.72 1027.46
1029.64 1029.93 1030.19 1030.30 1030.47 1030.57 1030.62 1030.63 1030.61 1030.44 1030.36 1030.15 1029.88 1029.60 1029.27 1028.92 1028.60 1028.38 1028.05 1027.76 1027.50 1027.07
1029.67 1029.95 1030.07 1030.20 1030.27 1030.36 1030.42 1030.47 1030.43 1030.29 1030.19 1029.99 1029.72 1029.33 1028.99 1028.70 1028.46 1028.22 1027.93 1027.55 1027.16 1026.71
1029.55 1029.80 1029.88 1029.94 1030.15 1030.30 1030.29 1030.25 1030.19 1030.07 1029.96 1029.83 1029.60 1029.19 1028.73 1028.49 1028.27 1028.01 1027.67 1027.35 1027.00 1026.60
1029.29 1029.66 1029.91 1029.98 1030.00 1030.01 1030.00 1029.98 1029.95 1029.85 1029.88 1029.79 1029.52 1028.83 1028.72 1028.43 1028.06 1027.70 1027.17 1026.89 1026.57 1026.14
1029.23 1029.63 1029.75 1029.73 1029.72 1029.80 1029.95 1030.03 1029.98 1029.93 1029.91 1029.78 1029.47 1029.16 1028.69 1028.21 1027.80 1027.45 1027.01 1026.39 1026.05 1025.86
1029.14 1029.45 1029.60 1029.65 1029.79 1030.01 1030.14 1030.12 1030.10 1030.05 1029.97 1029.74 1029.61 1028.95 1028.33 1027.96 1027.57 1027.08 1026.67 1026.24 1025.73 1025.20
1029.04 1029.39 1029.56 1029.67 1029.98 1030.20 1030.27 1030.29 1030.22 1030.10 1030.08 1029.81 1029.46 1028.72 1028.24 1027.65 1027.12 1026.74 1026.34 1025.93 1025.42 1024.83
1028.98 1029.35 1029.50 1029.93 1030.18 1030.32 1030.39 1030.37 1030.34 1030.17 1029.98 1029.81 1029.35 1028.71 1027.89 1027.28 1026.73 1026.09 1025.65 1025.32 1024.82 1024.14
1028.98 1029.25 1029.57 1029.86 1030.11 1030.35 1030.55 1030.40 1030.26 1029.98 1029.90 1029.69 1029.25 1028.60 1027.71 1026.84 1026.07 1025.30 1024.75 1024.28 1023.56 1022.97
1028.82 1029.06 1029.43 1029.80 1030.15 1030.42 1030.56 1030.38 1030.21 1029.91 1029.57 1029.25 1028.92 1028.25 1027.14 1026.09 1025.13 1024.43 1023.55 1022.85 1022.12 1021.47
Thickness
5465 5460 5454 5451 5446 5442 5440 5435 5432 5429 5427 5425 5422 5421 5421 5421 5425 5424 5424 5424 5422 5424
5445 5441 5437 5432 5428 5424 5419 5414 5412 5409 5405 5401 5400 5400 5397 5396 5399 5399 5400 5401 5402 5401
5426 5422 5417 5414 5408 5404 5398 5394 5390 5386 5384 5381 5379 5377 5376 5377 5377 5378 5378 5378 5379 5378
5407 5402 5397 5391 5385 5380 5376 5372 5368 5366 5363 5361 5358 5357 5356 5356 5357 5357 5357 5354 5353 5354
5388 5381 5375 5371 5366 5361 5357 5352 5348 5345 5340 5337 5335 5333 5332 5333 5331 5330 5332 5332 5332 5333
5366 5359 5354 5348 5343 5338 5333 5329 5324 5320 5316 5312 5309 5307 5305 5304 5304 5303 5302 5303 5304 5306
5346 5339 5334 5327 5320 5314 5310 5305 5301 5296 5291 5287 5283 5280 5278 5276 5276 5276 5276 5275 5274 5275
5329 5321 5313 5305 5299 5293 5287 5282 5277 5272 5266 5261 5257 5254 5251 5251 5251 5251 5253 5251 5248 5248
5307 5297 5290 5284 5278 5272 5265 5258 5253 5249 5245 5241 5237 5233 5231 5230 5232 5230 5228 5230 5228 5224
5286 5277 5270 5264 5257 5251 5245 5240 5236 5232 5228 5225 5220 5216 5216 5213 5211 5210 5208 5206 5206 5206
5265 5256 5250 5245 5239 5233 5229 5224 5220 5216 5211 5208 5203 5200 5197 5195 5193 5191 5189 5186 5185 5185
5246 5239 5234 5226 5222 5217 5213 5208 5203 5199 5195 5190 5187 5182 5181 5177 5176 5177 5175 5172 5170 5169
5229 5223 5218 5213 5207 5201 5194 5192 5188 5184 5178 5173 5170 5165 5162 5160 5161 5163 5163 5162 5163 5162
5217 5211 5205 5199 5191 5183 5177 5175 5170 5169 5164 5160 5155 5152 5148 5147 5148 5149 5154 5157 5161 5161